QPF
0.04 0.04 0.04 0.03 0.03 0.03 0.03 0.02 0.02 0.02 0.02 0.02 0.03 0.02 0.02 0.03 0.04 0.04 0.04 0.05 0.04 0.03 0.02 0.02 0.02 0.02 0.02 0.02 0.02 0.03 0.04 0.05 0.05 0.05 0.06 0.05 0.03 0.03 0.02 0.02 0.02 0.03 0.03
0.03 0.04 0.04 0.04 0.03 0.03 0.02 0.02 0.01 0.02 0.02 0.02 0.02 0.02 0.03 0.03 0.03 0.04 0.04 0.04 0.03 0.02 0.02 0.02 0.02 0.01 0.01 0.01 0.02 0.02 0.02 0.02 0.03 0.04 0.05 0.04 0.03 0.03 0.03 0.03 0.04 0.03 0.03
0.03 0.04 0.05 0.04 0.04 0.03 0.02 0.02 0.02 0.02 0.02 0.02 0.02 0.02 0.03 0.04 0.04 0.05 0.05 0.04 0.03 0.03 0.02 0.02 0.01 0.01 0.01 0.01 0.01 0.01 0.01 0.01 0.02 0.03 0.03 0.03 0.03 0.04 0.05 0.04 0.05 0.05 0.03
0.02 0.03 0.05 0.06 0.06 0.05 0.04 0.04 0.03 0.02 0.02 0.01 0.01 0.01 0.02 0.04 0.07 0.08 0.09 0.10 0.10 0.10 0.09 0.07 0.04 0.02 0.02 0.01 0.01 0.01 0.01 0.01 0.02 0.02 0.03 0.04 0.04 0.04 0.04 0.04 0.04 0.05 0.04
0.01 0.02 0.02 0.03 0.04 0.04 0.04 0.03 0.02 0.01 0.01 0.01 0.01 0.01 0.01 0.02 0.04 0.05 0.04 0.04 0.05 0.06 0.07 0.08 0.08 0.08 0.07 0.04 0.03 0.02 0.02 0.02 0.02 0.03 0.04 0.05 0.04 0.03 0.04 0.03 0.03 0.04 0.04
0.01 0.01 0.01 0.01 0.01 0.01 0.01 0.01 0.01 0.01 0.01 0.01 0.01 0.01 0.02 0.02 0.04 0.03 0.03 0.02 0.02 0.02 0.02 0.03 0.04 0.05 0.08 0.09 0.09 0.08 0.07 0.05 0.05 0.04 0.04 0.03 0.03 0.04 0.04 0.04 0.04 0.04 0.05
0.01 0.01 0.01 0.01 0.01 0.01 0.01 0.01 0.01 0.01 0.01 0.01 0.01 0.03 0.03 0.03 0.02 0.02 0.02 0.01 0.01 0.01 0.01 0.01 0.02 0.02 0.03 0.03 0.04 0.05 0.07 0.09 0.09 0.08 0.07 0.05 0.04 0.04 0.03 0.03 0.04 0.04 0.04
0.01 0.01 0.01 0.01 0.01 0.01 0.01 0.00 0.01 0.01 0.01 0.01 0.02 0.04 0.03 0.02 0.01 0.01 0.01 0.01 0.01 0.00 0.01 0.01 0.01 0.02 0.02 0.03 0.02 0.02 0.03 0.04 0.06 0.07 0.09 0.08 0.06 0.05 0.03 0.03 0.03 0.02 0.03
0.01 0.01 0.01 0.01 0.01 0.01 0.01 0.01 0.01 0.01 0.01 0.01 0.01 0.02 0.01 0.01 0.01 0.01 0.00 0.00 0.00 0.00 0.01 0.01 0.01 0.01 0.01 0.02 0.02 0.01 0.01 0.02 0.02 0.03 0.04 0.06 0.07 0.06 0.05 0.04 0.03 0.03 0.03
0.01 0.01 0.01 0.01 0.01 0.01 0.01 0.01 0.01 0.01 0.01 0.01 0.01 0.00 0.00 0.00 0.00 0.00 0.00 0.00 0.00 0.00 0.01 0.01 0.02 0.02 0.01 0.01 0.01 0.01 0.00 0.02 0.03 0.02 0.02 0.03 0.04 0.05 0.06 0.05 0.04 0.03 0.03
0.01 0.01 0.01 0.02 0.02 0.01 0.01 0.01 0.01 0.01 0.00 0.00 0.00 0.00 0.00 0.00 0.00 0.00 0.00 0.00 0.00 0.00 0.00 0.01 0.01 0.01 0.01 0.01 0.01 0.01 0.01 0.01 0.02 0.02 0.02 0.02 0.02 0.02 0.03 0.04 0.06 0.04 0.03
0.01 0.01 0.01 0.01 0.01 0.01 0.01 0.01 0.01 0.00 0.00 0.00 0.00 0.00 0.00 0.00 0.00 0.00 0.00 0.00 0.00 0.00 0.00 0.00 0.00 0.00 0.01 0.02 0.02 0.02 0.02 0.01 0.02 0.03 0.03 0.03 0.03 0.03 0.02 0.02 0.04 0.05 0.04
0.01 0.01 0.00 0.01 0.01 0.01 0.01 0.01 0.01 0.01 0.01 0.01 0.00 0.00 0.00 0.00 0.00 0.00 0.00 0.00 0.00 0.00 0.00 0.00 0.00 0.00 0.01 0.01 0.02 0.01 0.01 0.01 0.01 0.01 0.02 0.03 0.02 0.02 0.02 0.02 0.02 0.03 0.03
0.02 0.01 0.01 0.01 0.01 0.01 0.01 0.01 0.01 0.01 0.01 0.01 0.01 0.01 0.01 0.00 0.00 0.00 0.00 0.00 0.00 0.00 0.00 0.00 0.00 0.00 0.00 0.00 0.01 0.01 0.00 0.01 0.01 0.02 0.02 0.02 0.02 0.02 0.01 0.02 0.02 0.02 0.02
0.02 0.01 0.01 0.01 0.01 0.01 0.01 0.00 0.01 0.01 0.01 0.01 0.01 0.01 0.01 0.01 0.01 0.00 0.00 0.00 0.00 0.00 0.00 0.00 0.00 0.01 0.01 0.01 0.01 0.00 0.00 0.01 0.01 0.01 0.01 0.01 0.01 0.01 0.01 0.01 0.01 0.01 0.01
0.02 0.02 0.02 0.02 0.01 0.01 0.01 0.00 0.01 0.01 0.01 0.01 0.01 0.01 0.01 0.01 0.01 0.01 0.01 0.01 0.01 0.01 0.01 0.00 0.00 0.01 0.02 0.02 0.02 0.01 0.01 0.01 0.01 0.01 0.01 0.01 0.01 0.01 0.00 0.00 0.00 0.01 0.01
0.02 0.02 0.02 0.02 0.02 0.01 0.01 0.01 0.00 0.00 0.01 0.01 0.01 0.01 0.02 0.02 0.02 0.01 0.01 0.01 0.01 0.01 0.01 0.01 0.01 0.01 0.02 0.02 0.01 0.01 0.01 0.01 0.01 0.01 0.01 0.02 0.02 0.01 0.01 0.01 0.01 0.02 0.03
0.03 0.03 0.02 0.02 0.01 0.01 0.01 0.01 0.00 0.00 0.00 0.00 0.00 0.01 0.02 0.02 0.02 0.01 0.02 0.02 0.02 0.01 0.01 0.01 0.01 0.01 0.01 0.01 0.01 0.01 0.02 0.02 0.01 0.01 0.02 0.03 0.02 0.02 0.02 0.02 0.02 0.02 0.02
0.05 0.04 0.03 0.03 0.03 0.03 0.02 0.03 0.02 0.02 0.01 0.00 0.00 0.00 0.01 0.01 0.01 0.01 0.01 0.01 0.02 0.02 0.02 0.02 0.01 0.01 0.01 0.01 0.01 0.02 0.02 0.03 0.02 0.02 0.03 0.03 0.03 0.03 0.04 0.04 0.04 0.04 0.03
0.04 0.05 0.06 0.05 0.05 0.06 0.06 0.05 0.05 0.04 0.02 0.02 0.01 0.01 0.00 0.01 0.01 0.01 0.01 0.01 0.01 0.01 0.01 0.01 0.01 0.01 0.01 0.01 0.01 0.01 0.02 0.02 0.02 0.02 0.03 0.03 0.03 0.03 0.03 0.03 0.04 0.04 0.03
0.05 0.06 0.06 0.05 0.04 0.04 0.04 0.04 0.04 0.04 0.03 0.03 0.02 0.01 0.01 0.01 0.01 0.01 0.01 0.01 0.02 0.01 0.01 0.01 0.01 0.01 0.01 0.01 0.01 0.02 0.02 0.02 0.02 0.02 0.02 0.02 0.02 0.02 0.02 0.02 0.02 0.02 0.03
0.05 0.06 0.05 0.04 0.03 0.03 0.03 0.02 0.03 0.03 0.02 0.02 0.02 0.01 0.01 0.01 0.01 0.01 0.01 0.01 0.01 0.01 0.01 0.01 0.01 0.01 0.01 0.01 0.02 0.02 0.01 0.01 0.01 0.01 0.01 0.02 0.02 0.02 0.02 0.02 0.02 0.02 0.02
0.03 0.04 0.03 0.02 0.02 0.02 0.02 0.03 0.02 0.02 0.02 0.01 0.01 0.01 0.01 0.01 0.01 0.01 0.01 0.01 0.02 0.02 0.02 0.03 0.03 0.02 0.02 0.02 0.02 0.01 0.01 0.00 0.00 0.00 0.01 0.02 0.03 0.03 0.03 0.02 0.03 0.03 0.02
0.03 0.03 0.04 0.03 0.02 0.02 0.02 0.02 0.02 0.01 0.01 0.01 0.01 0.01 0.01 0.02 0.03 0.03 0.03 0.02 0.02 0.03 0.03 0.04 0.04 0.03 0.02 0.02 0.02 0.01 0.01 0.01 0.01 0.01 0.02 0.03 0.04 0.04 0.02 0.02 0.03 0.04 0.04
0.02 0.03 0.05 0.05 0.03 0.03 0.02 0.02 0.02 0.02 0.01 0.01 0.01 0.01 0.01 0.01 0.02 0.02 0.02 0.02 0.01 0.01 0.01 0.01 0.01 0.01 0.01 0.01 0.02 0.02 0.02 0.02 0.02 0.02 0.02 0.02 0.02 0.02 0.02 0.02 0.03 0.04 0.04
0.03 0.03 0.03 0.04 0.04 0.03 0.02 0.02 0.01 0.01 0.01 0.01 0.01 0.01 0.01 0.01 0.01 0.01 0.01 0.01 0.01 0.01 0.01 0.01 0.00 0.00 0.00 0.00 0.01 0.02 0.02 0.02 0.02 0.02 0.02 0.02 0.02 0.01 0.02 0.03 0.03 0.03 0.03
MSLP
1009.46 1009.71 1009.91 1010.06 1010.15 1010.19 1010.18 1010.13 1010.05 1009.92 1009.76 1009.56 1009.33 1009.06 1008.78 1008.50 1008.24 1008.02 1007.84 1007.71 1007.62 1007.55 1007.49 1007.42 1007.32 1007.18 1007.02 1006.85 1006.70 1006.58 1006.50 1006.47 1006.48 1006.50 1006.51 1006.50 1006.43 1006.31 1006.15 1005.99 1005.85 1005.79 1005.83
1009.40 1009.60 1009.75 1009.86 1009.93 1009.96 1009.96 1009.91 1009.83 1009.71 1009.55 1009.36 1009.12 1008.86 1008.58 1008.31 1008.06 1007.85 1007.68 1007.55 1007.45 1007.37 1007.28 1007.18 1007.06 1006.91 1006.75 1006.59 1006.47 1006.40 1006.38 1006.42 1006.50 1006.59 1006.66 1006.69 1006.65 1006.54 1006.38 1006.18 1006.00 1005.87 1005.83
1009.40 1009.54 1009.64 1009.71 1009.75 1009.76 1009.75 1009.70 1009.62 1009.51 1009.35 1009.16 1008.93 1008.68 1008.42 1008.16 1007.92 1007.72 1007.55 1007.41 1007.31 1007.21 1007.10 1006.97 1006.83 1006.67 1006.50 1006.36 1006.26 1006.23 1006.25 1006.34 1006.47 1006.62 1006.74 1006.81 1006.81 1006.73 1006.58 1006.39 1006.19 1006.03 1005.93
1009.44 1009.52 1009.57 1009.59 1009.60 1009.58 1009.54 1009.49 1009.40 1009.29 1009.14 1008.95 1008.74 1008.50 1008.25 1008.00 1007.78 1007.58 1007.42 1007.28 1007.16 1007.05 1006.93 1006.79 1006.63 1006.46 1006.30 1006.17 1006.08 1006.06 1006.11 1006.23 1006.38 1006.55 1006.71 1006.81 1006.85 1006.80 1006.69 1006.53 1006.35 1006.19 1006.09
1009.50 1009.51 1009.50 1009.48 1009.44 1009.38 1009.32 1009.24 1009.15 1009.03 1008.88 1008.71 1008.50 1008.27 1008.04 1007.81 1007.59 1007.40 1007.24 1007.10 1006.98 1006.87 1006.74 1006.60 1006.45 1006.28 1006.13 1006.00 1005.92 1005.90 1005.95 1006.06 1006.21 1006.39 1006.55 1006.67 1006.73 1006.72 1006.66 1006.55 1006.42 1006.30 1006.22
1009.53 1009.48 1009.42 1009.33 1009.24 1009.14 1009.04 1008.93 1008.82 1008.69 1008.55 1008.37 1008.18 1007.96 1007.74 1007.52 1007.31 1007.13 1006.98 1006.85 1006.74 1006.63 1006.52 1006.39 1006.26 1006.11 1005.97 1005.85 1005.76 1005.73 1005.76 1005.85 1005.97 1006.11 1006.25 1006.37 1006.45 1006.48 1006.46 1006.42 1006.35 1006.30 1006.27
1009.52 1009.41 1009.27 1009.12 1008.97 1008.81 1008.67 1008.53 1008.39 1008.24 1008.09 1007.91 1007.72 1007.52 1007.31 1007.10 1006.91 1006.75 1006.61 1006.50 1006.41 1006.33 1006.24 1006.15 1006.04 1005.92 1005.79 1005.68 1005.60 1005.55 1005.54 1005.58 1005.65 1005.75 1005.86 1005.96 1006.04 1006.09 1006.13 1006.15 1006.16 1006.19 1006.24
1009.46 1009.27 1009.06 1008.84 1008.61 1008.39 1008.19 1008.00 1007.82 1007.65 1007.49 1007.31 1007.12 1006.93 1006.74 1006.56 1006.39 1006.25 1006.15 1006.07 1006.01 1005.96 1005.92 1005.86 1005.79 1005.70 1005.59 1005.49 1005.40 1005.33 1005.28 1005.27 1005.29 1005.34 1005.40 1005.47 1005.55 1005.63 1005.70 1005.78 1005.87 1005.98 1006.11
1009.33 1009.07 1008.78 1008.47 1008.16 1007.87 1007.60 1007.36 1007.14 1006.94 1006.76 1006.58 1006.40 1006.22 1006.05 1005.90 1005.77 1005.67 1005.61 1005.57 1005.56 1005.56 1005.55 1005.54 1005.50 1005.44 1005.36 1005.27 1005.16 1005.07 1004.99 1004.93 1004.90 1004.90 1004.93 1004.98 1005.05 1005.14 1005.25 1005.38 1005.54 1005.71 1005.91
1009.15 1008.81 1008.43 1008.04 1007.65 1007.28 1006.94 1006.64 1006.38 1006.14 1005.94 1005.75 1005.58 1005.43 1005.29 1005.18 1005.10 1005.05 1005.03 1005.05 1005.09 1005.13 1005.18 1005.20 1005.20 1005.16 1005.09 1005.00 1004.89 1004.78 1004.67 1004.58 1004.51 1004.47 1004.47 1004.50 1004.57 1004.67 1004.81 1004.98 1005.18 1005.41 1005.66
1008.92 1008.50 1008.05 1007.57 1007.11 1006.67 1006.26 1005.90 1005.59 1005.32 1005.09 1004.90 1004.74 1004.61 1004.51 1004.45 1004.42 1004.43 1004.47 1004.55 1004.63 1004.73 1004.80 1004.86 1004.87 1004.85 1004.79 1004.69 1004.57 1004.44 1004.31 1004.20 1004.11 1004.06 1004.04 1004.07 1004.14 1004.26 1004.41 1004.61 1004.84 1005.10 1005.37
1008.65 1008.17 1007.64 1007.10 1006.57 1006.07 1005.61 1005.19 1004.84 1004.53 1004.28 1004.08 1003.93 1003.82 1003.76 1003.75 1003.78 1003.85 1003.95 1004.08 1004.22 1004.35 1004.45 1004.52 1004.55 1004.52 1004.45 1004.34 1004.20 1004.06 1003.91 1003.79 1003.70 1003.64 1003.63 1003.66 1003.74 1003.87 1004.03 1004.24 1004.48 1004.75 1005.03
1008.34 1007.81 1007.24 1006.66 1006.08 1005.54 1005.03 1004.57 1004.17 1003.84 1003.56 1003.35 1003.20 1003.11 1003.08 1003.11 1003.19 1003.32 1003.48 1003.66 1003.83 1003.99 1004.12 1004.19 1004.21 1004.17 1004.08 1003.95 1003.80 1003.63 1003.48 1003.35 1003.25 1003.20 1003.20 1003.24 1003.33 1003.46 1003.63 1003.84 1004.07 1004.33 1004.60
1007.98 1007.43 1006.84 1006.24 1005.65 1005.08 1004.55 1004.06 1003.63 1003.26 1002.96 1002.72 1002.57 1002.49 1002.48 1002.54 1002.66 1002.83 1003.04 1003.26 1003.48 1003.66 1003.79 1003.87 1003.87 1003.82 1003.70 1003.55 1003.37 1003.18 1003.01 1002.87 1002.77 1002.72 1002.72 1002.77 1002.86 1002.99 1003.16 1003.35 1003.57 1003.80 1004.05
1007.58 1007.03 1006.46 1005.87 1005.28 1004.71 1004.17 1003.66 1003.21 1002.81 1002.48 1002.22 1002.04 1001.95 1001.95 1002.03 1002.18 1002.39 1002.63 1002.89 1003.13 1003.33 1003.47 1003.55 1003.54 1003.47 1003.33 1003.14 1002.93 1002.72 1002.53 1002.37 1002.25 1002.19 1002.17 1002.21 1002.29 1002.41 1002.56 1002.73 1002.93 1003.14 1003.37
1007.14 1006.62 1006.08 1005.52 1004.97 1004.41 1003.88 1003.37 1002.89 1002.47 1002.11 1001.82 1001.62 1001.51 1001.50 1001.57 1001.73 1001.96 1002.23 1002.51 1002.77 1003.00 1003.16 1003.23 1003.23 1003.14 1002.98 1002.77 1002.53 1002.29 1002.06 1001.86 1001.71 1001.61 1001.56 1001.56 1001.61 1001.70 1001.82 1001.96 1002.14 1002.33 1002.55
1006.68 1006.20 1005.71 1005.20 1004.68 1004.16 1003.65 1003.14 1002.66 1002.22 1001.83 1001.51 1001.27 1001.13 1001.10 1001.16 1001.32 1001.55 1001.83 1002.13 1002.42 1002.66 1002.84 1002.94 1002.94 1002.86 1002.69 1002.47 1002.20 1001.92 1001.64 1001.39 1001.18 1001.02 1000.91 1000.85 1000.84 1000.87 1000.95 1001.07 1001.22 1001.41 1001.64
1006.24 1005.80 1005.35 1004.89 1004.42 1003.94 1003.45 1002.97 1002.49 1002.04 1001.63 1001.28 1001.01 1000.83 1000.77 1000.81 1000.95 1001.17 1001.45 1001.76 1002.07 1002.35 1002.55 1002.68 1002.71 1002.64 1002.48 1002.24 1001.96 1001.64 1001.31 1001.00 1000.71 1000.46 1000.27 1000.12 1000.03 1000.00 1000.02 1000.10 1000.24 1000.43 1000.68
1005.84 1005.43 1005.02 1004.61 1004.18 1003.75 1003.29 1002.83 1002.37 1001.92 1001.50 1001.13 1000.83 1000.63 1000.52 1000.53 1000.64 1000.85 1001.12 1001.44 1001.76 1002.06 1002.30 1002.46 1002.52 1002.48 1002.34 1002.11 1001.81 1001.47 1001.09 1000.70 1000.33 999.99 999.69 999.45 999.27 999.16 999.12 999.16 999.28 999.48 999.76
1005.54 1005.14 1004.76 1004.37 1003.98 1003.59 1003.17 1002.74 1002.30 1001.87 1001.45 1001.07 1000.76 1000.53 1000.39 1000.36 1000.44 1000.62 1000.87 1001.18 1001.50 1001.82 1002.08 1002.28 1002.38 1002.38 1002.28 1002.06 1001.77 1001.40 1000.98 1000.53 1000.08 999.65 999.25 998.90 998.63 998.43 998.33 998.33 998.44 998.65 998.97
1005.37 1004.97 1004.59 1004.22 1003.85 1003.48 1003.10 1002.71 1002.30 1001.90 1001.50 1001.13 1000.81 1000.56 1000.39 1000.33 1000.37 1000.50 1000.72 1001.00 1001.31 1001.63 1001.91 1002.13 1002.27 1002.31 1002.25 1002.07 1001.78 1001.41 1000.97 1000.49 999.97 999.46 998.98 998.54 998.18 997.91 997.75 997.72 997.81 998.03 998.37
1005.35 1004.93 1004.53 1004.16 1003.80 1003.46 1003.11 1002.75 1002.39 1002.02 1001.66 1001.31 1000.99 1000.73 1000.54 1000.44 1000.43 1000.51 1000.68 1000.91 1001.19 1001.48 1001.76 1002.00 1002.16 1002.24 1002.21 1002.07 1001.82 1001.48 1001.04 1000.54 1000.00 999.44 998.90 998.40 997.98 997.65 997.45 997.38 997.45 997.67 998.03
1005.50 1005.04 1004.61 1004.22 1003.86 1003.53 1003.21 1002.89 1002.57 1002.25 1001.92 1001.60 1001.30 1001.04 1000.83 1000.69 1000.62 1000.64 1000.74 1000.91 1001.13 1001.38 1001.63 1001.85 1002.03 1002.13 1002.14 1002.05 1001.85 1001.54 1001.14 1000.66 1000.13 999.57 999.01 998.49 998.03 997.68 997.44 997.34 997.39 997.60 997.96
1005.78 1005.27 1004.81 1004.40 1004.04 1003.71 1003.41 1003.13 1002.85 1002.57 1002.28 1001.99 1001.71 1001.45 1001.22 1001.04 1000.92 1000.86 1000.88 1000.97 1001.11 1001.29 1001.49 1001.69 1001.85 1001.97 1002.01 1001.97 1001.82 1001.58 1001.24 1000.81 1000.33 999.80 999.27 998.76 998.31 997.94 997.69 997.57 997.61 997.79 998.12
1006.15 1005.61 1005.12 1004.68 1004.31 1003.98 1003.70 1003.44 1003.19 1002.95 1002.70 1002.44 1002.18 1001.92 1001.67 1001.45 1001.27 1001.15 1001.08 1001.07 1001.12 1001.22 1001.35 1001.50 1001.64 1001.75 1001.82 1001.81 1001.73 1001.56 1001.29 1000.95 1000.54 1000.09 999.61 999.15 998.72 998.37 998.12 997.99 998.00 998.15 998.44
1006.57 1006.01 1005.50 1005.05 1004.66 1004.33 1004.05 1003.81 1003.59 1003.37 1003.15 1002.92 1002.67 1002.41 1002.15 1001.90 1001.66 1001.46 1001.31 1001.21 1001.17 1001.17 1001.23 1001.31 1001.41 1001.51 1001.58 1001.61 1001.58 1001.47 1001.29 1001.04 1000.72 1000.35 999.95 999.55 999.18 998.86 998.62 998.48 998.47 998.58 998.82
Thickness
5691 5688 5685 5681 5678 5675 5670 5667 5664 5661 5657 5654 5651 5648 5645 5643 5641 5638 5636 5634 5632 5629 5627 5624 5621 5619 5617 5616 5614 5612 5611 5609 5607 5608 5610 5612 5614 5616 5619 5621 5623 5625 5626
5689 5685 5682 5679 5675 5672 5668 5665 5662 5658 5655 5651 5648 5645 5643 5640 5638 5635 5633 5631 5628 5625 5623 5620 5618 5617 5614 5612 5610 5608 5607 5606 5604 5603 5604 5606 5608 5611 5612 5614 5617 5619 5620
5687 5683 5679 5676 5672 5669 5666 5663 5660 5656 5652 5649 5645 5642 5640 5637 5635 5633 5630 5627 5625 5623 5620 5618 5615 5613 5611 5609 5607 5605 5603 5603 5601 5600 5600 5601 5603 5606 5606 5608 5611 5612 5615
5685 5680 5676 5674 5671 5667 5664 5661 5657 5653 5650 5646 5643 5641 5638 5636 5633 5631 5628 5625 5622 5620 5618 5616 5614 5611 5609 5607 5605 5602 5600 5598 5597 5596 5596 5597 5599 5601 5601 5601 5603 5606 5608
5682 5678 5675 5672 5669 5666 5662 5659 5656 5652 5649 5645 5642 5639 5637 5634 5631 5628 5625 5623 5619 5617 5615 5613 5611 5610 5608 5606 5604 5601 5598 5595 5594 5593 5593 5594 5595 5595 5596 5598 5598 5600 5602
5680 5676 5673 5670 5667 5664 5661 5658 5654 5650 5646 5643 5640 5637 5634 5632 5629 5626 5623 5619 5616 5614 5611 5610 5609 5607 5606 5604 5602 5601 5598 5595 5593 5591 5591 5592 5593 5593 5594 5595 5595 5595 5595
5678 5674 5671 5668 5665 5662 5660 5655 5652 5648 5644 5641 5638 5635 5632 5628 5626 5623 5621 5617 5614 5611 5608 5606 5606 5605 5603 5601 5600 5599 5597 5596 5595 5592 5591 5591 5592 5593 5593 5593 5593 5592 5593
5675 5672 5670 5667 5663 5660 5657 5653 5650 5646 5642 5638 5636 5633 5629 5626 5624 5621 5618 5615 5611 5609 5606 5604 5602 5600 5600 5598 5597 5595 5594 5593 5593 5592 5591 5591 5593 5593 5593 5592 5592 5591 5591
5673 5670 5668 5665 5662 5658 5654 5651 5648 5644 5640 5637 5634 5631 5627 5624 5622 5619 5615 5612 5609 5606 5604 5602 5600 5598 5597 5595 5593 5591 5590 5590 5591 5591 5591 5592 5592 5592 5592 5590 5589 5587 5586
5671 5669 5667 5664 5660 5656 5653 5650 5647 5643 5639 5636 5632 5629 5625 5622 5620 5616 5613 5609 5606 5603 5602 5600 5599 5596 5595 5593 5590 5588 5586 5586 5587 5588 5588 5589 5589 5590 5590 5589 5588 5586 5584
5670 5667 5664 5661 5657 5654 5650 5647 5644 5641 5637 5633 5630 5627 5623 5621 5618 5614 5611 5607 5603 5601 5599 5598 5597 5595 5593 5591 5589 5586 5585 5584 5583 5584 5584 5584 5585 5586 5587 5587 5587 5586 5584
5666 5663 5660 5657 5655 5652 5647 5644 5641 5637 5634 5630 5626 5623 5621 5618 5616 5612 5609 5606 5603 5599 5597 5596 5595 5594 5592 5590 5588 5586 5585 5583 5581 5581 5581 5581 5582 5583 5584 5585 5585 5585 5585
5661 5658 5656 5653 5650 5647 5643 5640 5637 5634 5630 5627 5624 5620 5618 5616 5614 5611 5608 5605 5602 5599 5597 5596 5595 5593 5590 5588 5587 5585 5583 5580 5578 5578 5578 5579 5580 5581 5582 5582 5583 5583 5583
5657 5654 5652 5648 5645 5643 5641 5638 5635 5632 5628 5626 5622 5618 5616 5613 5611 5609 5606 5603 5601 5599 5596 5594 5593 5591 5589 5587 5585 5582 5581 5579 5577 5576 5577 5577 5578 5578 5579 5579 5578 5578 5577
5653 5651 5648 5645 5642 5639 5637 5636 5634 5633 5630 5626 5622 5618 5615 5612 5612 5610 5605 5602 5599 5597 5594 5591 5589 5587 5585 5583 5582 5581 5580 5578 5576 5575 5575 5575 5575 5575 5575 5575 5575 5574 5572
5648 5646 5644 5641 5639 5636 5634 5632 5633 5631 5630 5628 5624 5620 5617 5615 5612 5608 5605 5602 5600 5597 5592 5588 5586 5585 5583 5582 5581 5580 5579 5578 5577 5576 5574 5574 5573 5573 5572 5572 5572 5570 5569
5644 5642 5640 5639 5636 5633 5631 5629 5627 5626 5626 5625 5622 5620 5617 5614 5611 5608 5604 5601 5598 5595 5590 5588 5586 5584 5583 5582 5581 5580 5579 5578 5577 5576 5574 5573 5572 5571 5570 5570 5570 5568 5567
5641 5639 5637 5635 5634 5631 5629 5627 5625 5623 5621 5620 5620 5618 5615 5612 5609 5605 5602 5598 5595 5591 5588 5586 5585 5584 5583 5582 5581 5580 5579 5578 5576 5575 5573 5572 5571 5570 5569 5567 5567 5566 5565
5636 5635 5634 5632 5631 5629 5627 5625 5622 5621 5619 5617 5616 5615 5613 5609 5606 5603 5599 5595 5592 5590 5587 5585 5584 5582 5581 5581 5580 5579 5578 5577 5576 5574 5572 5571 5570 5568 5567 5566 5565 5565 5563
5632 5631 5630 5629 5628 5626 5624 5622 5620 5618 5616 5615 5613 5612 5608 5605 5602 5599 5596 5593 5591 5588 5586 5584 5583 5581 5579 5578 5578 5577 5576 5575 5574 5573 5572 5570 5569 5568 5566 5565 5564 5563 5561
5627 5626 5627 5625 5624 5623 5622 5620 5619 5616 5614 5613 5612 5612 5608 5604 5602 5598 5595 5592 5590 5588 5586 5584 5582 5580 5578 5576 5575 5574 5573 5572 5571 5570 5570 5569 5568 5567 5566 5565 5564 5562 5561
5622 5621 5621 5620 5620 5620 5619 5618 5617 5615 5613 5612 5610 5609 5606 5603 5600 5597 5594 5591 5590 5588 5586 5583 5581 5579 5577 5575 5574 5572 5571 5570 5570 5569 5569 5568 5568 5567 5566 5565 5563 5562 5560
5617 5617 5616 5616 5616 5617 5616 5615 5614 5613 5612 5610 5608 5606 5603 5601 5598 5595 5592 5590 5588 5587 5585 5582 5579 5577 5575 5574 5573 5572 5570 5569 5569 5568 5568 5567 5567 5566 5565 5564 5564 5562 5560
5611 5611 5611 5611 5611 5611 5611 5611 5610 5610 5609 5608 5606 5604 5602 5599 5597 5595 5592 5589 5587 5585 5584 5581 5579 5577 5575 5573 5572 5571 5571 5570 5570 5569 5569 5568 5566 5566 5565 5564 5563 5562 5560
5605 5605 5606 5606 5606 5606 5606 5606 5606 5606 5605 5605 5603 5602 5600 5598 5595 5593 5591 5588 5586 5584 5582 5581 5579 5577 5575 5574 5572 5571 5570 5570 5570 5569 5569 5567 5566 5565 5564 5563 5562 5560 5558
5599 5600 5601 5601 5602 5602 5602 5602 5602 5602 5601 5601 5600 5599 5597 5596 5594 5592 5590 5587 5585 5583 5581 5580 5578 5576 5575 5574 5572 5571 5570 5570 5569 5569 5568 5566 5565 5563 5562 5561 5560 5558 5556